Location: Góry Miechowskie
(50.3599°N, 20.1803°E)
Time: 19:31:22
(UTC+00:00)

Meteor 1-11 - Pass Details

Date: 10 September 2024
Orbit: 841 x 884 km, 81.2° (Epoch: 09 October)

Event Time Altitude Azimuth Distance (km) Brightness Sun altitude
Rises 00:20:57 0° 341° (NNW) 3,478 7.9 -30.4°
Reaches altitude 10° 00:23:33 10° 333° (NNW) 2,541 7.0 -30.2°
Enters shadow 00:26:46 28° 307° (NW) 1,600 5.6 -29.9°
